GFSGBSN_925_spd_102.txt.gz
Wind_Speed
7 8 9 10 10 11 12 13 14 16 18 18 19 20 22 23 23 24 29 32 34 35 35 31 26 24 11 4 12 18 17 15 10 9 9 5 7 7 6 5 7 9 15 14 14 15 17
5 7 9 10 11 11 12 13 15 17 19 20 21 23 25 24 25 26 30 32 35 39 36 30 22 18 2 7 10 5 7 17 12 11 6 8 7 7 5 7 10 8 10 15 12 12 5
6 7 8 10 13 13 13 14 15 17 18 19 21 23 28 28 28 29 31 36 39 42 39 30 19 7 7 23 16 17 27 31 17 16 8 11 15 4 3 7 8 8 13 9 5 5 6
7 6 7 10 12 13 14 15 14 16 19 18 18 22 25 27 27 29 33 37 45 40 31 23 8 4 9 24 24 31 26 27 19 17 16 16 16 6 6 6 7 5 4 5 3 1 5
7 8 9 10 12 13 15 15 15 16 19 21 19 21 25 28 29 31 35 42 40 26 16 4 4 5 11 12 11 18 16 13 12 11 17 15 5 6 4 3 3 3 13 10 5 4 4
8 10 10 11 12 13 14 15 16 18 21 20 19 22 28 30 30 31 36 39 15 11 10 6 3 2 8 6 5 11 5 9 7 6 3 5 4 5 2 4 15 8 7 6 5 4 6
8 10 10 11 12 15 15 15 16 19 20 19 20 22 26 27 28 28 35 14 7 5 7 7 8 7 16 11 21 5 7 12 2 4 6 5 4 12 11 11 10 10 8 11 1 5 7
10 10 10 12 14 15 16 17 17 19 19 19 20 21 22 25 25 23 15 5 6 14 13 10 20 25 40 28 13 24 5 2 4 8 4 4 17 11 10 9 10 12 14 20 12 11 13
10 10 11 13 15 15 16 18 18 19 19 19 20 21 20 23 22 15 18 14 26 29 5 12 14 14 10 21 25 32 9 6 8 4 12 15 6 16 13 14 15 15 17 14 15 14 16
9 11 12 15 16 17 17 18 19 19 19 20 20 20 20 21 11 17 15 22 25 24 4 10 8 11 9 9 9 13 23 11 7 19 7 13 16 17 13 18 16 18 17 17 15 10 8
10 12 14 15 16 17 17 18 16 17 19 19 19 18 18 13 12 7 14 24 26 1 5 10 6 5 9 12 1 5 13 13 18 9 10 11 8 19 22 19 17 13 17 15 16 9 4
12 12 12 14 17 17 17 17 14 16 19 19 19 20 19 20 10 18 18 20 11 2 9 8 4 5 5 8 4 2 6 6 7 3 9 13 7 4 7 8 15 12 14 15 13 5 10
12 12 12 14 15 15 16 14 15 17 18 20 22 20 20 15 8 13 14 7 3 8 7 12 9 11 15 7 8 5 4 8 6 6 12 8 22 16 9 7 7 6 3 4 3 2 5
11 12 14 14 14 15 13 13 14 16 17 19 21 22 25 25 25 19 6 4 9 13 22 17 14 17 6 8 6 5 5 7 7 4 2 7 7 13 7 18 6 8 9 5 8 5 4
12 13 13 13 13 14 14 13 14 15 16 17 21 19 16 24 17 15 2 5 3 6 5 13 17 5 14 20 11 7 2 5 9 16 7 5 6 3 5 12 15 9 7 8 5 3 3
12 14 14 14 13 13 13 13 13 14 15 16 13 12 13 15 9 6 4 11 8 9 13 15 12 9 14 17 10 3 7 5 7 8 13 5 8 5 3 4 12 10 5 4 3 8 6
14 15 13 14 14 13 12 13 13 13 14 13 6 4 8 11 9 2 5 6 8 8 11 8 17 18 15 13 15 6 9 5 5 8 13 7 4 4 1 2 4 5 10 1 4 4 10
16 15 14 14 13 11 12 13 12 12 12 8 2 3 1 3 1 2 3 4 6 11 12 13 9 13 3 6 7 4 4 3 5 8 9 8 5 4 5 4 4 4 4 6 4 2 3
15 16 16 14 14 15 13 13 11 12 7 3 2 3 7 5 1 3 5 7 6 13 14 6 8 16 8 5 5 8 3 9 5 4 6 8 5 4 4 3 7 6 6 5 4 4 5
15 16 14 14 16 14 11 10 11 11 5 4 2 3 3 1 2 4 4 5 6 6 11 7 10 12 1 2 2 6 5 3 5 5 13 6 5 3 2 2 1 2 6 8 4 3 1
18 17 17 17 16 12 11 10 9 10 5 6 2 3 3 2 3 2 4 5 11 9 5 7 7 10 10 4 4 3 6 6 10 7 4 5 3 5 6 2 3 3 3 4 3 1 1
16 16 17 18 15 12 11 11 11 10 7 6 2 2 2 3 5 6 5 4 10 14 3 10 7 9 5 4 3 4 6 5 4 5 6 3 3 2 2 6 6 2 4 3 4 4 10
17 17 17 16 13 12 13 13 13 11 13 4 4 6 1 2 2 2 3 4 15 11 10 11 9 5 5 2 1 6 6 6 8 3 3 6 4 4 1 8 4 3 2 5 5 9 13
18 18 17 16 14 14 14 15 16 15 17 12 5 2 2 3 2 2 9 13 11 12 8 11 9 4 4 4 5 4 5 6 6 6 3 2 3 3 3 5 0 3 10 2 12 9 11
19 18 16 18 16 16 16 17 14 16 18 21 14 2 2 3 2 4 8 9 10 8 4 4 7 8 1 4 3 5 4 3 6 8 7 6 2 1 1 1 6 4 5 4 3 5 5
20 19 19 18 17 16 16 16 14 14 15 19 19 17 3 2 4 4 4 4 4 5 6 4 9 5 1 2 3 1 3 3 3 5 12 6 4 3 2 1 3 2 5 6 4 3 2
19 19 18 19 20 16 15 15 15 13 14 17 8 19 5 4 4 3 3 3 3 3 3 5 11 7 4 2 1 2 3 1 4 4 1 4 1 7 2 1 6 6 6 6 3 4 1
20 19 19 19 19 17 16 15 16 15 15 16 13 15 13 3 5 5 6 4 5 2 1 5 5 5 3 2 2 3 2 2 3 2 2 7 6 3 3 2 6 4 2 1 3 3 4
20 19 20 20 19 17 17 17 17 17 15 14 10 16 21 3 5 12 15 19 14 9 3 2 3 2 1 3 3 3 3 2 3 3 1 4 5 5 6 6 4 5 4 2 4 2 5

GFSGBSN_925_spd_108.txt.gz
Wind_Speed
2 2 3 5 7 8 8 8 9 11 13 15 17 18 20 21 24 27 32 35 34 33 34 30 24 20 9 4 11 13 19 11 3 4 5 3 4 5 5 5 4 7 3 7 7 7 6
1 1 1 4 6 6 7 9 10 10 13 15 18 18 20 23 25 29 33 37 35 33 33 31 20 11 1 5 7 7 9 10 5 3 1 6 6 6 4 5 7 3 8 14 9 9 6
2 1 2 4 4 7 7 9 10 9 12 15 18 18 21 23 28 31 36 38 35 33 30 24 14 4 3 19 14 19 24 30 28 17 4 13 9 2 1 4 5 5 8 7 7 6 7
2 1 1 3 5 7 7 8 10 11 12 15 16 19 23 26 30 32 39 39 32 28 16 16 3 8 8 13 17 20 17 17 15 21 21 20 13 4 5 5 5 3 4 3 4 10 6
3 1 3 3 4 5 7 9 10 12 13 16 19 20 23 26 30 35 38 34 26 8 13 8 6 3 10 11 7 9 20 8 14 5 14 5 7 7 3 4 3 4 5 5 4 7 4
2 2 2 1 4 7 8 10 10 11 14 16 17 19 22 25 31 36 36 24 11 6 10 3 3 2 7 5 8 22 14 6 5 4 3 4 3 4 2 5 12 5 6 4 6 3 6
3 3 2 2 5 7 7 8 10 12 13 15 16 18 20 25 28 27 34 8 8 6 8 6 13 11 21 22 29 12 5 11 4 2 5 5 4 19 16 10 10 9 5 8 2 4 3
5 4 2 2 4 6 8 8 11 12 13 14 17 19 21 24 27 19 24 7 6 10 14 15 22 27 33 22 13 17 19 4 4 7 4 3 16 6 9 9 10 9 14 19 4 5 6
6 6 4 4 5 5 7 8 10 11 11 13 16 19 22 24 20 16 12 16 21 23 6 6 8 8 5 9 8 5 10 7 9 13 13 13 8 15 11 7 12 16 19 9 8 1 7
6 6 3 3 4 6 7 7 9 10 10 14 16 18 21 24 5 21 3 21 22 12 4 7 5 6 2 3 7 9 13 9 8 22 10 11 17 14 4 12 10 16 10 8 9 5 6
5 3 3 2 3 5 6 8 8 9 11 13 14 16 18 16 10 7 11 20 22 1 4 3 5 1 11 4 19 3 2 4 23 8 9 22 7 11 16 18 12 8 10 12 7 6 2
5 4 3 2 3 4 6 8 7 8 11 13 14 14 14 12 10 6 9 17 5 4 7 8 6 22 22 27 14 9 7 6 3 8 7 15 2 9 13 8 18 7 3 3 3 4 5
6 6 5 3 3 4 6 7 8 9 10 12 14 15 15 9 3 5 8 4 4 2 10 9 13 20 27 16 13 8 9 5 5 3 7 13 10 3 5 5 5 7 7 2 1 3 6
8 8 6 4 5 3 6 6 7 8 10 12 14 17 15 8 7 5 1 5 4 4 4 7 11 28 13 16 12 15 10 5 5 3 1 6 5 16 7 7 7 11 14 5 7 4 4
9 9 8 5 6 5 6 5 6 8 9 11 15 14 7 6 1 8 4 4 4 3 4 6 17 10 13 17 12 10 7 6 2 8 3 3 5 4 11 9 9 5 9 8 3 1 2
9 9 7 7 6 7 5 5 5 7 7 10 10 8 5 5 7 3 3 3 4 4 9 7 7 6 16 23 13 8 5 11 13 12 5 4 3 3 4 5 7 9 7 3 1 6 7
10 10 8 8 8 7 5 4 5 6 6 8 4 3 6 10 4 3 2 4 5 8 9 4 7 13 18 13 8 7 10 6 18 12 13 3 3 5 1 4 8 4 5 4 5 5 5
13 9 10 10 8 7 5 4 4 4 5 2 2 2 7 3 3 1 2 3 7 7 6 8 9 11 8 8 5 4 7 7 17 15 8 5 4 4 7 5 2 1 4 10 5 7 2
17 11 10 11 10 9 7 6 5 3 2 3 1 2 1 3 1 2 4 4 4 4 4 3 5 6 10 5 4 9 5 8 9 12 4 5 3 2 1 3 5 3 2 2 5 3 6
21 15 11 10 11 10 8 7 6 4 3 4 2 2 3 0 1 2 3 4 4 5 5 5 8 8 9 4 3 5 9 4 7 2 12 4 3 6 3 2 8 6 6 6 4 5 7
20 17 14 14 12 11 10 8 8 5 6 6 1 3 2 2 2 3 3 3 4 6 3 5 4 10 10 4 5 5 5 7 10 6 5 1 5 3 7 8 5 5 8 12 4 1 6
21 19 15 15 15 15 12 10 11 9 8 5 3 2 2 2 3 3 3 3 4 5 3 5 6 15 11 4 4 13 11 5 5 7 6 2 2 4 6 9 5 1 3 12 5 3 4
21 19 18 17 17 15 14 12 14 11 12 4 5 1 3 3 2 2 3 1 4 8 6 7 10 12 7 6 9 17 15 13 10 7 4 4 1 2 2 6 9 2 6 9 4 2 4
23 21 17 19 16 15 15 15 16 15 18 8 6 4 2 3 4 4 3 4 9 8 9 14 10 4 5 14 14 10 9 12 11 12 7 5 3 1 2 4 6 3 4 5 4 3 4
26 23 20 20 18 18 18 17 17 15 16 19 9 5 2 2 4 7 9 6 7 7 4 7 8 5 11 6 4 6 4 4 4 7 6 8 2 2 1 2 4 1 3 4 4 4 3
31 23 21 21 19 19 17 18 18 17 16 19 19 13 3 1 5 6 3 3 3 4 5 4 7 9 4 1 2 2 2 3 3 5 5 3 0 2 2 0 1 2 4 4 1 1 1
32 26 22 21 21 19 17 18 17 17 15 20 9 23 6 2 4 4 4 3 2 2 3 4 6 6 4 4 2 1 2 3 2 2 1 1 2 3 2 2 5 4 8 6 1 3 4
33 28 24 23 23 21 18 17 16 16 15 20 12 15 16 2 5 5 4 5 2 2 2 4 5 3 4 5 3 3 3 4 4 3 2 1 0 2 1 2 6 1 4 2 3 3 6
32 29 24 22 21 22 18 18 18 16 16 19 6 16 21 4 5 5 14 24 23 18 2 3 3 1 2 2 2 2 2 2 6 2 2 1 3 3 5 4 3 2 3 4 5 1 2

GFSGBSN_925_spd_111.txt.gz
Wind_Speed
4 2 0 2 4 5 6 7 9 11 13 14 16 17 18 20 21 24 27 29 29 28 25 24 19 15 7 3 9 7 12 7 4 3 6 7 6 6 6 5 6 8 5 7 11 12 10
3 2 2 2 4 5 5 6 8 8 10 14 15 17 19 21 23 25 29 31 29 26 25 19 14 5 2 4 3 6 10 14 11 4 1 5 5 4 4 5 10 3 6 13 10 13 7
5 3 2 0 2 4 5 7 7 8 10 12 14 17 20 22 24 27 29 30 29 24 16 12 9 6 4 14 7 16 17 14 15 15 6 7 4 2 1 4 3 5 12 11 10 7 9
6 6 3 2 2 4 4 5 6 8 10 12 15 16 19 22 26 30 32 32 23 12 9 11 0 5 7 7 13 8 17 12 11 8 17 22 12 10 4 5 4 5 5 6 1 11 7
5 4 3 2 0 1 3 5 6 7 9 11 13 16 19 22 27 30 33 27 10 4 10 6 2 2 9 11 4 7 11 11 18 4 3 3 7 6 5 8 9 6 14 10 5 8 5
5 5 3 4 2 3 4 5 6 7 8 10 12 15 19 22 28 27 32 17 6 3 9 3 1 4 3 8 13 18 26 16 4 7 2 4 4 6 6 10 16 10 11 9 15 6 10
7 5 4 4 1 3 4 4 6 7 8 11 12 16 19 23 23 24 34 7 9 5 10 4 16 7 18 13 24 6 13 8 4 5 6 5 7 19 18 20 19 13 11 14 6 2 6
9 6 5 3 1 2 3 4 5 7 8 10 12 16 20 24 14 21 29 8 6 5 11 20 21 14 25 13 6 14 6 4 5 13 10 5 19 12 11 15 15 17 20 25 14 12 11
8 6 6 4 2 1 2 3 5 6 6 10 12 15 21 21 5 22 13 11 14 13 5 9 6 6 7 4 4 7 6 3 9 17 16 18 28 17 11 10 17 20 23 18 17 8 10
8 8 8 5 2 2 1 2 3 4 7 10 12 14 20 16 4 15 4 17 18 3 4 6 5 2 13 14 5 23 3 5 4 7 13 17 27 14 9 18 15 19 11 17 15 9 11
9 7 5 4 3 1 1 2 2 4 6 9 12 14 17 16 5 3 10 17 14 2 5 12 5 5 17 18 16 7 12 5 19 16 6 12 5 18 23 19 15 9 10 15 16 15 10
8 6 5 5 3 2 2 3 3 4 6 9 11 13 13 8 6 5 13 14 4 2 5 7 9 17 17 16 16 10 11 13 8 11 14 24 14 10 19 13 20 6 6 5 3 6 8
9 6 6 6 4 3 1 2 2 4 7 9 11 12 9 7 2 6 10 5 2 2 6 8 10 13 20 8 11 15 21 15 9 6 11 11 22 16 9 12 13 17 12 6 7 6 9
10 9 8 7 4 5 1 1 2 4 6 8 10 10 5 5 4 1 4 4 4 0 5 7 8 22 6 10 15 17 14 15 16 17 12 9 8 21 16 18 12 19 17 8 9 7 7
10 8 7 9 5 5 2 1 2 4 5 8 9 7 5 9 4 5 4 4 3 3 4 9 16 8 8 8 11 10 9 6 7 11 6 4 6 4 10 12 16 9 17 16 2 1 3
12 9 9 9 7 6 3 2 0 3 4 6 5 3 6 2 7 4 3 1 2 4 6 4 5 3 12 13 13 12 6 7 11 8 10 3 6 6 0 15 12 10 17 9 6 9 7
15 11 11 8 8 8 4 4 1 1 3 4 4 3 5 8 4 3 2 2 4 7 7 3 5 8 9 12 8 5 5 11 9 15 11 7 3 2 5 7 19 12 11 7 9 5 10
16 13 12 11 9 9 6 5 3 1 1 2 4 2 5 4 3 2 1 3 3 6 4 7 6 9 10 14 7 5 5 6 16 12 14 4 4 6 12 4 1 11 21 11 11 13 7
20 17 13 13 12 10 8 7 4 3 2 4 2 1 2 2 2 1 3 3 4 3 5 3 3 2 10 8 7 8 8 11 10 14 9 7 3 5 5 3 5 6 4 5 15 0 14
22 22 15 12 13 10 11 8 6 5 5 4 2 2 2 1 2 2 1 3 3 4 4 2 4 4 11 9 8 10 11 9 19 16 13 1 4 8 2 3 1 1 3 6 5 12 16
25 27 20 16 13 11 10 9 7 8 9 4 2 2 2 1 1 1 1 3 4 4 3 2 2 8 10 6 13 4 13 19 13 8 12 1 2 6 14 7 1 3 2 3 2 3 13
22 29 21 20 17 13 12 11 10 12 12 2 3 3 2 1 2 2 2 2 2 3 3 4 4 13 13 9 12 19 17 16 10 9 12 8 3 3 3 13 6 1 0 5 3 2 4
23 25 23 22 19 14 15 14 13 15 16 3 3 2 3 1 2 2 3 2 1 7 5 8 10 15 11 11 12 20 18 19 17 16 9 6 7 9 5 6 7 5 2 1 2 4 3
25 26 24 22 18 15 16 16 15 18 20 8 6 5 3 3 4 4 3 2 8 8 10 14 13 6 5 15 17 13 10 14 12 13 10 7 9 4 6 10 3 1 5 6 2 11 7
28 29 25 21 18 18 17 15 16 20 20 15 9 5 3 2 5 6 9 7 7 8 9 10 11 5 10 7 5 8 4 3 3 1 6 12 3 4 3 6 4 2 4 2 1 2 1
31 29 24 22 22 21 19 18 18 20 20 21 15 10 3 2 5 4 5 4 4 3 5 3 5 8 3 1 2 3 3 4 4 9 6 5 5 3 4 4 2 1 6 5 3 1 2
29 28 28 25 25 22 20 19 18 19 19 21 8 20 5 2 4 5 4 3 2 2 3 4 7 5 3 3 3 2 2 5 4 6 6 3 1 6 6 4 6 5 12 6 2 3 6
31 30 31 27 26 23 19 19 19 19 19 22 12 15 12 3 4 6 4 5 3 3 4 3 5 0 3 4 3 3 3 3 4 7 6 3 3 1 2 3 6 14 8 4 3 2 4
32 35 33 27 24 24 21 19 18 17 17 21 6 16 20 3 4 3 12 22 19 12 3 2 3 3 2 2 1 3 3 2 5 4 2 3 1 3 4 3 4 9 7 8 6 1 4

GFSGBSN_925_spd_114.txt.gz
Wind_Speed
11 8 5 4 3 4 3 3 5 6 8 12 12 14 16 18 19 21 23 24 25 25 23 18 14 12 6 5 5 4 8 9 6 3 9 10 12 13 16 11 18 19 19 18 16 19 19
10 8 8 6 6 5 1 2 2 2 7 9 12 14 15 18 20 23 25 27 27 22 15 10 9 4 3 7 1 8 13 14 12 10 9 10 11 13 14 15 17 13 14 17 17 18 20
11 9 7 6 5 3 4 5 5 5 8 11 12 13 16 17 21 24 27 26 24 13 8 9 7 3 5 7 8 10 8 8 6 9 14 13 10 11 5 13 13 14 18 19 19 19 19
13 11 11 9 4 4 3 2 1 4 8 9 10 13 15 18 23 24 27 29 11 6 9 8 3 2 4 4 10 13 14 6 10 10 10 15 16 12 14 13 15 13 17 17 13 11 19
13 13 12 10 7 6 3 1 3 3 5 8 11 13 15 20 23 24 27 23 5 4 8 5 1 5 3 5 24 21 20 21 25 12 7 6 7 12 14 15 16 17 19 21 15 10 13
13 12 11 11 9 5 4 2 2 3 4 7 10 12 16 20 18 22 26 6 4 4 8 3 1 8 4 15 25 24 18 17 12 15 11 6 6 11 16 16 20 16 20 18 22 17 17
14 13 11 10 8 5 4 2 1 2 3 6 9 12 16 18 15 20 21 3 3 3 10 5 10 4 8 18 12 14 19 20 11 12 16 13 10 21 21 23 26 22 24 22 18 7 13
15 13 11 10 8 5 4 3 1 2 2 6 8 12 15 16 11 18 14 7 6 2 6 3 5 5 8 8 15 11 22 10 14 14 15 15 24 29 19 21 22 24 26 28 21 17 14
15 13 12 10 8 6 5 4 1 1 2 4 8 12 15 12 8 10 18 11 2 1 3 4 3 2 5 19 15 9 22 16 15 15 11 19 37 12 23 18 21 24 25 20 21 16 17
15 15 14 12 10 8 6 4 2 2 1 4 7 11 14 7 3 6 4 8 6 5 2 7 5 3 9 17 4 15 18 16 15 17 16 17 19 21 24 25 23 23 20 19 18 13 16
15 15 13 10 9 7 6 5 4 3 0 3 7 10 12 13 3 3 7 11 6 4 5 6 4 6 16 15 14 3 19 13 21 22 21 33 23 11 18 34 19 25 17 15 15 15 16
15 12 10 11 9 8 6 5 5 3 1 3 6 7 8 5 3 4 9 9 3 4 0 4 7 15 20 14 11 10 19 14 13 22 25 32 26 25 24 19 24 18 12 11 10 10 14
16 12 12 12 9 8 7 6 5 3 1 3 5 6 6 4 3 8 8 3 4 2 3 5 8 13 18 15 12 16 16 16 11 13 16 26 28 28 27 25 21 25 18 10 10 10 17
16 12 12 12 9 10 7 5 5 3 1 2 3 5 7 5 4 4 3 1 1 2 4 8 9 17 6 12 12 15 15 9 13 16 15 16 21 22 19 28 26 23 25 12 19 13 14
17 13 13 14 10 11 8 6 5 2 1 1 5 6 3 7 4 4 2 1 2 2 2 7 14 8 10 13 11 10 14 4 4 6 7 11 11 22 18 25 25 26 22 28 18 13 8
17 13 14 16 13 10 8 7 6 3 2 2 6 6 5 3 4 3 1 3 1 1 4 3 5 3 14 15 12 15 8 5 10 8 4 5 14 15 8 15 22 24 23 21 14 19 20
19 16 15 15 14 13 9 9 6 4 2 3 4 3 3 4 3 0 1 2 2 1 2 2 5 9 12 12 13 17 6 15 8 24 21 10 7 8 7 10 19 17 16 19 20 16 15
22 19 17 15 14 13 10 10 8 6 3 3 2 3 4 4 2 1 3 2 2 2 1 3 6 9 11 13 16 14 8 14 17 20 24 3 6 8 14 4 5 22 21 24 14 23 16
23 21 19 17 17 14 13 12 10 7 6 4 2 3 1 2 3 4 3 3 4 3 2 2 4 3 10 14 9 8 15 18 15 23 11 11 6 12 6 6 7 4 18 19 21 15 19
23 22 21 17 17 16 15 13 11 9 8 4 2 3 3 1 1 2 2 4 2 3 6 5 8 8 12 13 10 13 20 12 18 20 14 11 6 6 8 16 2 6 2 9 19 15 16
24 24 25 20 18 18 17 15 13 12 11 4 0 2 1 5 5 6 4 3 4 2 2 5 5 5 11 7 19 10 20 24 16 10 10 14 9 12 15 19 11 2 12 10 10 20 17
27 26 28 23 20 19 18 17 14 15 14 3 3 3 3 4 6 9 5 4 5 3 3 5 9 9 14 15 15 20 23 21 13 13 16 13 8 16 18 9 12 3 4 3 12 14 16
28 27 29 31 24 21 20 19 19 19 16 4 3 2 2 5 7 6 6 6 3 2 5 8 8 14 15 16 17 23 23 24 22 21 18 9 7 11 7 14 5 4 9 2 3 3 4
29 27 27 31 26 26 21 22 21 22 20 6 7 5 3 4 6 7 4 5 7 8 11 12 13 14 10 19 24 21 17 16 14 12 11 8 10 5 10 11 3 4 10 3 5 4 5
27 27 29 29 29 27 24 22 21 21 24 10 8 6 3 4 6 7 9 9 9 10 12 13 12 7 13 14 11 10 6 4 2 1 3 9 7 5 5 8 2 5 9 9 8 6 11
26 28 31 30 29 27 23 22 20 21 23 14 11 8 3 2 5 8 7 8 9 8 7 6 6 9 5 4 4 6 4 6 3 6 3 2 6 5 6 5 3 5 15 16 4 3 6
30 29 33 32 30 26 25 23 20 20 24 18 9 13 6 4 6 5 5 3 3 3 5 6 5 4 3 3 5 4 3 7 4 7 8 7 3 4 5 3 6 14 20 15 4 8 12
27 31 36 34 30 26 26 23 21 22 24 20 12 15 11 4 6 6 7 10 9 6 7 2 5 2 3 3 3 3 3 4 5 8 8 5 5 2 4 3 4 20 10 10 12 15 7
21 34 37 32 31 28 27 23 22 21 25 22 7 12 12 2 4 3 10 18 19 15 8 3 5 3 3 4 2 3 6 4 7 4 1 3 6 6 5 6 12 13 12 13 14 4 8